| time (UTC) | temp F | wind direction | speed MPH | gust MPH | rain 1hr in | rain 24hr in | rain mn in | humidity % | barometer mb |
| 20260503184109 | 57 | 183 | 2.0 | 6.0 | 0.04 | 0.00 | 0.00 | 93 | 1010.3 |
| 20260503184016 | 57 | 182 | 2.0 | 6.0 | 0.04 | 1.11 | 0.67 | 93 | 1010.3 |
| 20260503183605 | 57 | 183 | 2.0 | 6.0 | 0.07 | 0.00 | 0.00 | 93 | 1010.4 |
| 20260503183515 | 57 | 191 | 2.0 | 6.0 | 0.07 | 1.11 | 0.67 | 93 | 1010.4 |
| 20260503183113 | 57 | 171 | 2.0 | 6.0 | 0.09 | 0.00 | 0.00 | 93 | 1010.4 |
| 20260503183016 | 57 | 198 | 2.0 | 5.0 | 0.09 | 1.11 | 0.67 | 93 | 1010.4 |
| 20260503182612 | 57 | 196 | 2.0 | 5.0 | 0.09 | 0.00 | 0.00 | 93 | 1010.4 |
| 20260503182515 | 57 | 192 | 2.0 | 5.0 | 0.09 | 1.11 | 0.67 | 93 | 1010.4 |
| 20260503182104 | 57 | 178 | 2.0 | 4.0 | 0.09 | 0.00 | 0.00 | 93 | 1010.3 |
| 20260503182037 | 57 | 188 | 2.0 | 4.0 | 0.09 | 1.11 | 0.67 | 93 | 1010.3 |
| 20260503181615 | 57 | 202 | 2.0 | 4.0 | 0.10 | 0.00 | 0.00 | 93 | 1010.3 |
| 20260503181516 | 57 | 188 | 2.0 | 4.0 | 0.11 | 1.11 | 0.67 | 93 | 1010.4 |
| 20260503181110 | 57 | 186 | 1.0 | 4.0 | 0.11 | 0.00 | 0.00 | 93 | 1010.3 |
| 20260503181037 | 57 | 186 | 1.0 | 4.0 | 0.12 | 1.11 | 0.67 | 93 | 1010.3 |
| 20260503180604 | 57 | 186 | 1.0 | 3.0 | 0.14 | 0.00 | 0.00 | 93 | 1010.2 |
| 20260503180536 | 57 | 186 | 1.0 | 3.0 | 0.15 | 1.11 | 0.67 | 93 | 1010.3 |
| 20260503180351 | 58 | 186 | 2.0 | 5.0 | 0.37 | 1.09 | 0.00 | 92 | 1010.3 |
| 20260503180158 | 57 | 186 | 2.0 | 4.0 | 0.34 | 0.00 | 0.00 | 92 | 1010.2 |
| 20260503180016 | 57 | 191 | 2.0 | 4.0 | 0.36 | 1.10 | 0.66 | 92 | 1010.2 |
| 20260503175537 | 57 | 190 | 2.0 | 5.0 | 0.37 | 1.09 | 0.65 | 92 | 1010.3 |
| 20260503175109 | 58 | 184 | 3.0 | 6.0 | 0.39 | 1.09 | 0.00 | 92 | 1010.4 |
| 20260503175016 | 58 | 198 | 3.0 | 6.0 | 0.42 | 1.09 | 0.65 | 92 | 1010.5 |
| 20260503174603 | 58 | 188 | 3.0 | 6.0 | 0.43 | 1.08 | 0.00 | 92 | 1010.5 |
| 20260503174515 | 58 | 204 | 3.0 | 6.0 | 0.43 | 1.08 | 0.64 | 92 | 1010.6 |
| 20260503174109 | 58 | 174 | 1.0 | 6.0 | 0.47 | 1.07 | 0.00 | 92 | 1010.5 |
| 20260503174037 | 58 | 205 | 1.0 | 6.0 | 0.47 | 1.07 | 0.63 | 92 | 1010.6 |
| 20260503173603 | 58 | 207 | 1.0 | 3.0 | 0.45 | 1.04 | 0.00 | 92 | 1010.5 |
| 20260503173517 | 58 | 207 | 1.0 | 3.0 | 0.45 | 1.04 | 0.60 | 92 | 1010.5 |
| 20260503173059 | 58 | 207 | 2.0 | 3.0 | 0.43 | 1.02 | 0.00 | 92 | 1010.4 |
| 20260503173037 | 58 | 207 | 2.0 | 3.0 | 0.43 | 1.02 | 0.58 | 92 | 1010.4 |
| 20260503172555 | 58 | 207 | 2.0 | 4.0 | 0.43 | 1.02 | 0.00 | 91 | 1010.1 |
| 20260503172518 | 58 | 215 | 2.0 | 4.0 | 0.43 | 1.02 | 0.57 | 91 | 1010.1 |
| 20260503172054 | 59 | 207 | 1.0 | 4.0 | 0.43 | 1.02 | 0.00 | 91 | 1010.2 |
| 20260503172016 | 59 | 225 | 1.0 | 4.0 | 0.43 | 1.02 | 0.57 | 91 | 1010.3 |
| 20260503171551 | 59 | 262 | 1.0 | 3.0 | 0.42 | 1.01 | 0.00 | 91 | 1009.9 |
| 20260503171536 | 59 | 262 | 1.0 | 3.0 | 0.41 | 1.00 | 0.57 | 91 | 1010.0 |
| 20260503171042 | 59 | 262 | 1.0 | 3.0 | 0.41 | 1.00 | 0.00 | 90 | 1009.8 |
| 20260503171037 | 59 | 279 | 1.0 | 3.0 | 0.40 | 0.99 | 0.56 | 90 | 1009.9 |
| 20260503170545 | 60 | 269 | 1.0 | 4.0 | 0.38 | 0.97 | 0.00 | 90 | 1009.9 |
| 20260503170516 | 60 | 232 | 1.0 | 4.0 | 0.37 | 0.96 | 0.52 | 90 | 1010.0 |
| 20260503150656 | 61 | 202 | 3.0 | 13.0 | 0.00 | 0.59 | 0.00 | 92 | 1009.8 |
| 20260503150607 | 61 | 243 | 3.0 | 6.0 | 0.00 | 0.59 | 0.00 | 92 | 1009.6 |
| 20260503150515 | 61 | 208 | 3.0 | 6.0 | 0.00 | 0.59 | 0.15 | 92 | 1009.7 |
| 20260503131023 | 61 | 179 | 3.0 | 9.0 | 0.02 | 0.59 | 0.00 | 93 | 1010.2 |
| 20260503131017 | 61 | 193 | 3.0 | 9.0 | 0.02 | 0.59 | 0.15 | 93 | 1010.2 |
| 20260503130651 | 61 | 204 | 3.0 | 6.0 | 0.03 | 0.59 | 0.00 | 93 | 1010.2 |
| 20260503130534 | 61 | 166 | 3.0 | 9.0 | 0.02 | 0.59 | 0.00 | 93 | 1010.2 |
| 20260503130515 | 61 | 192 | 3.0 | 9.0 | 0.02 | 0.59 | 0.15 | 93 | 1010.1 |
| 20260503110515 | 61 | 213 | 2.0 | 5.0 | 0.03 | 0.47 | 0.03 | 91 | 1010.5 |
| 20260503110424 | 61 | 178 | 2.0 | 5.0 | 0.03 | 0.47 | 0.00 | 91 | 1010.4 |
| 20260503090408 | 63 | 221 | 4.0 | 10.0 | 0.00 | 0.44 | 0.00 | 86 | 1010.3 |
| 20260503081515 | 62 | 219 | 2.0 | 4.0 | 0.00 | 0.44 | 0.00 | 91 | 1010.1 |
| 20260503081406 | 62 | 207 | 1.0 | 4.0 | 0.00 | 0.44 | 0.00 | 91 | 1010.0 |
| 20260503081018 | 62 | 219 | 1.0 | 5.0 | 0.00 | 0.44 | 0.00 | 91 | 1010.0 |
| 20260503080916 | 62 | 221 | 2.0 | 5.0 | 0.00 | 0.44 | 0.00 | 91 | 1009.9 |
| 20260503080515 | 62 | 213 | 1.0 | 5.0 | 0.00 | 0.44 | 0.00 | 91 | 1010.0 |
| 20260503080402 | 62 | 220 | 1.0 | 4.0 | 0.00 | 0.44 | 0.00 | 91 | 1009.9 |
| 20260503072933 | 61 | 187 | 1.0 | 3.0 | 0.00 | 0.44 | 0.00 | 93 | 1009.8 |
| 20260503072514 | 61 | 179 | 1.0 | 4.0 | 0.00 | 0.44 | 0.00 | 93 | 1009.9 |
| 20260503072015 | 61 | 179 | 1.0 | 4.0 | 0.00 | 0.44 | 0.00 | 93 | 1009.8 |
| 20260503071536 | 61 | 178 | 1.0 | 3.0 | 0.00 | 0.44 | 0.00 | 93 | 1009.9 |
| 20260503071411 | 61 | 175 | 2.0 | 4.0 | 0.00 | 0.44 | 0.00 | 93 | 1009.8 |
| 20260503071015 | 61 | 182 | 2.0 | 4.0 | 0.00 | 0.44 | 0.00 | 93 | 1009.9 |
| 20260503070516 | 60 | 186 | 1.0 | 4.0 | 0.00 | 0.44 | 0.00 | 94 | 1009.9 |
| 20260503060316 | 58 | 153 | 1.0 | 4.0 | 0.00 | 0.44 | 0.00 | 94 | 1009.8 |
| 20260503055015 | 58 | 200 | 2.0 | 4.0 | 0.00 | 0.44 | 0.00 | 94 | 1009.9 |
| 20260503054811 | 57 | 202 | 2.0 | 4.0 | 0.00 | 0.44 | 0.00 | 94 | 1009.8 |
| 20260503054807 | 58 | 202 | 2.0 | 4.0 | 0.00 | 0.44 | 0.00 | 94 | 1009.8 |
| 20260503054515 | 58 | 193 | 2.0 | 4.0 | 0.00 | 0.44 | 0.00 | 94 | 1009.9 |
| 20260503054015 | 57 | 180 | 1.0 | 4.0 | 0.00 | 0.44 | 0.00 | 94 | 1009.9 |
| 20260503053814 | 57 | 214 | 1.0 | 4.0 | 0.00 | 0.44 | 0.00 | 94 | 1009.9 |
| 20260503053537 | 57 | 163 | 1.0 | 4.0 | 0.00 | 0.44 | 0.00 | 94 | 1010.0 |
| 20260503053306 | 57 | 155 | 1.0 | 2.0 | 0.00 | 0.44 | 0.00 | 94 | 1009.9 |
| 20260503053015 | 57 | 150 | 1.0 | 3.0 | 0.00 | 0.44 | 0.00 | 94 | 1009.9 |
| 20260503052811 | 57 | 157 | 1.0 | 3.0 | 0.00 | 0.44 | 0.00 | 94 | 1009.8 |
| 20260503052514 | 57 | 148 | 0.0 | 3.0 | 0.00 | 0.44 | 0.00 | 94 | 1010.0 |
| 20260503052310 | 57 | 147 | 0.0 | 3.0 | 0.00 | 0.44 | 0.00 | 94 | 1010.0 |
| 20260503052036 | 57 | 143 | 0.0 | 3.0 | 0.00 | 0.44 | 0.00 | 94 | 1010.0 |
| 20260503051801 | 57 | 151 | 1.0 | 3.0 | 0.00 | 0.44 | 0.00 | 94 | 1010.0 |
| 20260503051536 | 57 | 156 | 1.0 | 3.0 | 0.00 | 0.44 | 0.00 | 94 | 1009.9 |
| 20260503051302 | 57 | 126 | 1.0 | 3.0 | 0.00 | 0.44 | 0.00 | 94 | 1010.0 |
| 20260503051015 | 57 | 184 | 1.0 | 3.0 | 0.00 | 0.44 | 0.00 | 94 | 1010.1 |
| 20260503050804 | 57 | 171 | 1.0 | 3.0 | 0.00 | 0.44 | 0.00 | 94 | 1010.1 |
| 20260503050515 | 57 | 191 | 1.0 | 3.0 | 0.00 | 0.44 | 0.00 | 94 | 1010.1 |
| 20260503050302 | 57 | 189 | 1.0 | 3.0 | 0.00 | 0.44 | 0.00 | 94 | 1010.1 |
| 20260503050015 | 57 | 194 | 1.0 | 3.0 | 0.00 | 0.44 | 0.00 | 94 | 1010.1 |
| 20260503045831 | 57 | 192 | 0.0 | 2.0 | 0.00 | 0.44 | 0.00 | 94 | 1010.1 |
| 20260503045819 | 57 | 194 | 0.0 | 3.0 | 0.00 | 0.44 | 0.00 | 94 | 1009.9 |
| 20260503045515 | 57 | 193 | 0.0 | 3.0 | 0.00 | 0.44 | 0.00 | 94 | 1010.1 |
| 20260503045036 | 57 | 192 | 0.0 | 2.0 | 0.00 | 0.44 | 0.00 | 94 | 1010.1 |
| 20260503044810 | 57 | 192 | 0.0 | 2.0 | 0.00 | 0.44 | 0.00 | 94 | 1010.0 |
| 20260503044535 | 57 | 192 | 0.0 | 2.0 | 0.00 | 0.44 | 0.00 | 94 | 1010.1 |
| 20260503044302 | 57 | 192 | 0.0 | 2.0 | 0.00 | 0.44 | 0.00 | 94 | 1010.1 |
| 20260503044016 | 57 | 192 | 0.0 | 2.0 | 0.00 | 0.44 | 0.00 | 93 | 1010.2 |
| 20260503043823 | 57 | 192 | 0.0 | 2.0 | 0.00 | 0.44 | 0.00 | 93 | 1010.1 |
| 20260503043537 | 57 | 0 | 0.0 | 0.0 | 0.00 | 0.44 | 0.00 | 93 | 1010.1 |
| 20260503043314 | 57 | 192 | 0.0 | 0.0 | 0.00 | 0.44 | 0.00 | 93 | 1010.0 |
| 20260503043015 | 57 | 192 | 0.0 | 1.0 | 0.00 | 0.44 | 0.00 | 93 | 1010.1 |
| 20260503042806 | 57 | 192 | 0.0 | 1.0 | 0.00 | 0.44 | 0.00 | 93 | 1010.0 |
| 20260503042516 | 57 | 192 | 0.0 | 1.0 | 0.00 | 0.44 | 0.00 | 93 | 1010.0 |
| 20260503042252 | 57 | 192 | 0.0 | 1.0 | 0.00 | 0.44 | 0.00 | 93 | 1010.1 |
| 20260503042036 | 57 | 192 | 0.0 | 1.0 | 0.00 | 0.44 | 0.00 | 93 | 1010.1 |
| 20260503041740 | 57 | 192 | 0.0 | 1.0 | 0.00 | 0.44 | 0.00 | 93 | 1010.1 |
| 20260503041514 | 57 | 192 | 0.0 | 1.0 | 0.00 | 0.44 | 0.00 | 93 | 1010.1 |
| 20260503041353 | 57 | 192 | 0.0 | 1.0 | 0.00 | 0.44 | 0.00 | 93 | 1010.1 |
| 20260503041306 | 57 | 192 | 0.0 | 1.0 | 0.00 | 0.44 | 0.00 | 93 | 1010.1 |
| 20260503041016 | 57 | 192 | 0.0 | 1.0 | 0.00 | 0.44 | 0.00 | 93 | 1010.1 |
| 20260503040537 | 57 | 192 | 0.0 | 0.0 | 0.00 | 0.44 | 0.00 | 93 | 1010.4 |
| 20260503040514 | 57 | 192 | 0.0 | 1.0 | 0.00 | 0.44 | 0.00 | 93 | 1010.0 |
| 20260503040242 | 57 | 192 | 0.0 | 0.0 | 0.00 | 0.44 | 0.00 | 93 | 1010.4 |
| 20260503040219 | 57 | 192 | 0.0 | 0.0 | 0.00 | 0.44 | 0.00 | 93 | 1010.0 |
| 20260503040015 | 57 | 0 | 0.0 | 0.0 | 0.00 | 0.44 | 0.00 | 93 | 1010.1 |
| 20260503035732 | 57 | 192 | 0.0 | 0.0 | 0.00 | 0.44 | 0.00 | 93 | 1010.1 |
| 20260503035516 | 57 | 0 | 0.0 | 0.0 | 0.00 | 0.44 | 0.00 | 93 | 1010.2 |
| 20260503035206 | 57 | 192 | 0.0 | 0.0 | 0.00 | 0.44 | 0.00 | 93 | 1010.2 |
| 20260503035015 | 57 | 0 | 0.0 | 0.0 | 0.00 | 0.44 | 0.00 | 93 | 1010.2 |
| 20260503034836 | 57 | 192 | 0.0 | 0.0 | 0.00 | 0.44 | 0.00 | 93 | 1010.3 |
| 20260503034515 | 58 | 192 | 0.0 | 0.0 | 0.00 | 0.44 | 0.00 | 93 | 1010.4 |
| 20260503034250 | 57 | 192 | 0.0 | 0.0 | 0.00 | 0.44 | 0.00 | 93 | 1010.3 |
| 20260503034017 | 57 | 0 | 0.0 | 0.0 | 0.00 | 0.44 | 0.00 | 93 | 1010.3 |
| 20260503033729 | 57 | 192 | 0.0 | 0.0 | 0.00 | 0.44 | 0.00 | 93 | 1010.3 |
| 20260503033514 | 57 | 0 | 0.0 | 0.0 | 0.00 | 0.44 | 0.00 | 93 | 1010.3 |
| 20260503033015 | 57 | 0 | 0.0 | 0.0 | 0.00 | 0.44 | 0.00 | 93 | 1010.4 |
| 20260503032650 | 57 | 192 | 0.0 | 0.0 | 0.00 | 0.44 | 0.00 | 93 | 1010.5 |
| 20260503032515 | 57 | 0 | 0.0 | 0.0 | 0.00 | 0.44 | 0.00 | 93 | 1010.5 |
| 20260503032015 | 58 | 0 | 0.0 | 0.0 | 0.00 | 0.44 | 0.00 | 93 | 1010.5 |
| 20260503031631 | 58 | 192 | 0.0 | 0.0 | 0.00 | 0.44 | 0.00 | 93 | 1010.4 |
| 20260503031535 | 58 | 0 | 0.0 | 0.0 | 0.00 | 0.44 | 0.00 | 93 | 1010.5 |
| 20260503031140 | 58 | 192 | 0.0 | 0.0 | 0.00 | 0.44 | 0.00 | 93 | 1010.3 |
| 20260503031015 | 58 | 0 | 0.0 | 0.0 | 0.00 | 0.44 | 0.00 | 93 | 1010.4 |
| 20260503030627 | 58 | 192 | 0.0 | 0.0 | 0.00 | 0.44 | 0.00 | 93 | 1010.4 |
| 20260503030515 | 58 | 0 | 0.0 | 0.0 | 0.00 | 0.44 | 0.00 | 93 | 1010.5 |
| 20260503030342 | 58 | 192 | 0.0 | 1.0 | 0.00 | 0.44 | 0.00 | 93 | 1010.7 |
| 20260503030259 | 58 | 192 | 0.0 | 1.0 | 0.00 | 0.44 | 0.00 | 93 | 1010.7 |
| 20260503030200 | 58 | 192 | 0.0 | 1.0 | 0.00 | 0.44 | 0.00 | 93 | 1010.5 |
| 20260503030015 | 58 | 192 | 0.0 | 1.0 | 0.00 | 0.44 | 0.00 | 93 | 1010.6 |
| 20260503025515 | 58 | 192 | 0.0 | 1.0 | 0.00 | 0.44 | 0.00 | 93 | 1010.8 |
| 20260503025015 | 58 | 192 | 0.0 | 1.0 | 0.00 | 0.44 | 0.00 | 93 | 1011.0 |
| 20260503024606 | 58 | 192 | 0.0 | 1.0 | 0.00 | 0.44 | 0.00 | 93 | 1011.0 |
| 20260503024514 | 58 | 192 | 0.0 | 1.0 | 0.00 | 0.44 | 0.00 | 93 | 1011.0 |
| 20260503024111 | 58 | 192 | 0.0 | 1.0 | 0.00 | 0.44 | 0.00 | 93 | 1011.0 |
| 20260503024015 | 58 | 192 | 0.0 | 1.0 | 0.00 | 0.44 | 0.00 | 93 | 1011.0 |
| 20260503023606 | 58 | 192 | 0.0 | 1.0 | 0.00 | 0.44 | 0.00 | 93 | 1011.0 |
| 20260503023515 | 58 | 192 | 0.0 | 1.0 | 0.00 | 0.44 | 0.00 | 93 | 1011.1 |
| 20260503023103 | 58 | 192 | 0.0 | 2.0 | 0.00 | 0.44 | 0.00 | 93 | 1011.0 |
| 20260503023016 | 58 | 192 | 0.0 | 2.0 | 0.00 | 0.44 | 0.00 | 93 | 1011.0 |
| 20260503022601 | 58 | 192 | 0.0 | 2.0 | 0.00 | 0.44 | 0.00 | 93 | 1011.0 |
| 20260503022514 | 58 | 192 | 0.0 | 2.0 | 0.00 | 0.44 | 0.00 | 93 | 1011.1 |
| 20260503022055 | 58 | 192 | 0.0 | 2.0 | 0.00 | 0.44 | 0.00 | 93 | 1011.1 |
| 20260503022016 | 58 | 192 | 0.0 | 2.0 | 0.00 | 0.44 | 0.00 | 93 | 1011.1 |
| 20260503021548 | 58 | 192 | 0.0 | 2.0 | 0.00 | 0.44 | 0.00 | 93 | 1011.2 |
| 20260503021515 | 58 | 192 | 0.0 | 2.0 | 0.00 | 0.44 | 0.00 | 93 | 1011.1 |
| 20260503021048 | 58 | 192 | 1.0 | 3.0 | 0.00 | 0.44 | 0.00 | 93 | 1011.0 |
| 20260503021015 | 58 | 172 | 1.0 | 3.0 | 0.00 | 0.44 | 0.00 | 93 | 1011.0 |
| 20260503020544 | 58 | 192 | 1.0 | 3.0 | 0.00 | 0.44 | 0.00 | 93 | 1011.2 |
| 20260503020515 | 58 | 164 | 1.0 | 3.0 | 0.00 | 0.44 | 0.00 | 93 | 1011.2 |
| 20260503020046 | 58 | 144 | 0.0 | 3.0 | 0.00 | 0.44 | 0.00 | 93 | 1011.0 |
| 20260503020015 | 58 | 134 | 1.0 | 3.0 | 0.00 | 0.44 | 0.00 | 93 | 1011.1 |
| 20260503015537 | 58 | 143 | 0.0 | 3.0 | 0.00 | 0.44 | 0.00 | 93 | 1011.0 |
| 20260503015514 | 58 | 126 | 0.0 | 3.0 | 0.00 | 0.44 | 0.00 | 93 | 1011.0 |
| 20260503015052 | 58 | 194 | 1.0 | 4.0 | 0.00 | 0.44 | 0.00 | 93 | 1011.0 |
| 20260503015040 | 58 | 94 | 1.0 | 3.0 | 0.00 | 0.44 | 0.00 | 93 | 1011.1 |
| 20260503015015 | 58 | 179 | 1.0 | 4.0 | 0.00 | 0.44 | 0.00 | 93 | 1011.1 |
| 20260503014515 | 58 | 165 | 1.0 | 4.0 | 0.00 | 0.44 | 0.00 | 93 | 1011.0 |
| 20260503014023 | 58 | 165 | 0.0 | 4.0 | 0.00 | 0.44 | 0.00 | 93 | 1010.7 |
| 20260503014014 | 58 | 124 | 0.0 | 2.0 | 0.00 | 0.44 | 0.00 | 93 | 1010.8 |
| 20260503013525 | 58 | 112 | 0.0 | 2.0 | 0.00 | 0.44 | 0.00 | 93 | 1010.7 |
| 20260503013514 | 58 | 147 | 0.0 | 2.0 | 0.00 | 0.44 | 0.00 | 93 | 1010.9 |
| 20260503013037 | 58 | 144 | 1.0 | 3.0 | 0.00 | 0.44 | 0.00 | 93 | 1010.8 |
| 20260503013015 | 58 | 151 | 1.0 | 3.0 | 0.00 | 0.44 | 0.00 | 93 | 1010.9 |
| 20260503012528 | 58 | 158 | 1.0 | 4.0 | 0.00 | 0.44 | 0.00 | 93 | 1010.9 |
| 20260503012515 | 58 | 155 | 1.0 | 4.0 | 0.00 | 0.44 | 0.00 | 93 | 1011.0 |
| 20260503012017 | 58 | 136 | 1.0 | 4.0 | 0.00 | 0.44 | 0.00 | 93 | 1010.9 |
| 20260503012015 | 58 | 160 | 1.0 | 4.0 | 0.00 | 0.44 | 0.00 | 93 | 1010.9 |
| 20260503011516 | 58 | 157 | 1.0 | 4.0 | 0.00 | 0.44 | 0.00 | 92 | 1011.0 |
| 20260503011514 | 58 | 142 | 1.0 | 4.0 | 0.00 | 0.44 | 0.00 | 92 | 1011.0 |
| 20260503011017 | 58 | 131 | 1.0 | 3.0 | 0.00 | 0.44 | 0.00 | 92 | 1011.2 |
| 20260503011015 | 58 | 171 | 1.0 | 3.0 | 0.00 | 0.44 | 0.00 | 92 | 1011.2 |
| 20260503010624 | 58 | 246 | 1.0 | 4.0 | 0.00 | 0.44 | 0.00 | 92 | 1011.1 |
| 20260503010535 | 58 | 246 | 1.0 | 2.0 | 0.00 | 0.44 | 0.00 | 92 | 1011.2 |
| 20260503010515 | 58 | 237 | 1.0 | 2.0 | 0.00 | 0.44 | 0.00 | 92 | 1011.2 |
| 20260503010015 | 58 | 185 | 1.0 | 4.0 | 0.00 | 0.44 | 0.00 | 92 | 1011.2 |
| 20260503005515 | 58 | 159 | 1.0 | 4.0 | 0.00 | 0.44 | 0.00 | 92 | 1011.3 |
| 20260503005456 | 58 | 138 | 1.0 | 3.0 | 0.00 | 0.44 | 0.00 | 92 | 1011.3 |
| 20260503005036 | 58 | 145 | 1.0 | 3.0 | 0.00 | 0.44 | 0.00 | 92 | 1011.4 |
| 20260503004642 | 58 | 175 | 2.0 | 6.0 | 0.00 | 0.44 | 0.00 | 92 | 1011.4 |
| 20260503004611 | 58 | 215 | 2.0 | 6.0 | 0.00 | 0.44 | 0.00 | 92 | 1011.3 |
| 20260503004536 | 58 | 144 | 1.0 | 3.0 | 0.00 | 0.44 | 0.00 | 92 | 1011.3 |
| 20260503004517 | 58 | 150 | 1.0 | 3.0 | 0.00 | 0.44 | 0.00 | 92 | 1011.4 |
| 20260503004015 | 58 | 162 | 2.0 | 6.0 | 0.00 | 0.44 | 0.00 | 92 | 1011.4 |
| 20260503003515 | 58 | 170 | 2.0 | 6.0 | 0.00 | 0.44 | 0.00 | 92 | 1011.4 |
| 20260503003021 | 58 | 167 | 2.0 | 5.0 | 0.00 | 0.44 | 0.00 | 92 | 1011.5 |
| 20260503003015 | 58 | 172 | 2.0 | 5.0 | 0.00 | 0.44 | 0.00 | 92 | 1011.5 |
| 20260503002514 | 58 | 178 | 2.0 | 6.0 | 0.00 | 0.44 | 0.00 | 92 | 1011.5 |
| 20260503002130 | 59 | 115 | 1.0 | 4.0 | 0.00 | 0.44 | 0.00 | 92 | 1011.5 |
| 20260503002022 | 58 | 181 | 1.0 | 6.0 | 0.00 | 0.44 | 0.00 | 92 | 1011.4 |
| 20260503002016 | 59 | 151 | 1.0 | 6.0 | 0.00 | 0.44 | 0.00 | 92 | 1011.5 |
| 20260503001536 | 59 | 142 | 1.0 | 4.0 | 0.00 | 0.44 | 0.00 | 92 | 1011.6 |
| 20260503001440 | 59 | 164 | 0.0 | 2.0 | 0.00 | 0.44 | 0.00 | 92 | 1011.8 |
| 20260503001436 | 59 | 164 | 0.0 | 2.0 | 0.00 | 0.44 | 0.00 | 92 | 1011.8 |
| 20260503001429 | 59 | 181 | 0.0 | 2.0 | 0.00 | 0.44 | 0.00 | 92 | 1012.0 |
| 20260503001144 | 59 | 164 | 0.0 | 4.0 | 0.00 | 0.44 | 0.00 | 92 | 1011.7 |
| 20260503001036 | 59 | 158 | 0.0 | 4.0 | 0.00 | 0.44 | 0.00 | 92 | 1011.6 |
| 20260503000514 | 59 | 159 | 0.0 | 2.0 | 0.00 | 0.44 | 0.00 | 92 | 1011.7 |
| 20260503000015 | 59 | 179 | 0.0 | 2.0 | 0.00 | 0.44 | 0.00 | 92 | 1011.9 |
| 20260502235535 | 59 | 192 | 0.0 | 2.0 | 0.00 | 0.44 | 0.00 | 92 | 1012.1 |
| 20260502235014 | 59 | 204 | 0.0 | 2.0 | 0.00 | 0.44 | 0.00 | 92 | 1012.2 |
| 20260502235008 | 59 | 204 | 0.0 | 2.0 | 0.00 | 0.44 | 0.00 | 92 | 1012.2 |
| 20260502234650 | 59 | 204 | 0.0 | 2.0 | 0.00 | 0.44 | 0.00 | 92 | 1012.3 |
| 20260502234531 | 59 | 204 | 1.0 | 2.0 | 0.00 | 0.44 | 0.00 | 92 | 1012.3 |
| 20260502234514 | 59 | 209 | 1.0 | 2.0 | 0.00 | 0.44 | 0.00 | 92 | 1012.3 |
| 20260502234036 | 59 | 220 | 0.0 | 2.0 | 0.00 | 0.44 | 0.00 | 92 | 1012.3 |
| 20260502233514 | 59 | 243 | 1.0 | 3.0 | 0.00 | 0.44 | 0.00 | 92 | 1012.4 |
| 20260502233503 | 59 | 242 | 1.0 | 3.0 | 0.00 | 0.44 | 0.00 | 92 | 1012.4 |
| 20260502233017 | 59 | 242 | 1.0 | 3.0 | 0.00 | 0.44 | 0.00 | 92 | 1012.8 |
| 20260502233014 | 59 | 225 | 1.0 | 3.0 | 0.00 | 0.44 | 0.00 | 92 | 1012.8 |
| 20260502232514 | 59 | 138 | 0.0 | 3.0 | 0.00 | 0.44 | 0.00 | 92 | 1012.7 |
| 20260502232455 | 59 | 163 | 0.0 | 2.0 | 0.00 | 0.44 | 0.00 | 92 | 1012.6 |
| 20260502232100 | 59 | 113 | 0.0 | 2.0 | 0.00 | 0.44 | 0.00 | 91 | 1012.4 |
| 20260502232015 | 59 | 95 | 0.0 | 2.0 | 0.00 | 0.44 | 0.00 | 91 | 1012.3 |
| 20260502231959 | 59 | 113 | 0.0 | 2.0 | 0.00 | 0.44 | 0.00 | 91 | 1012.2 |
| 20260502231514 | 59 | 65 | 0.0 | 2.0 | 0.00 | 0.44 | 0.00 | 91 | 1012.4 |
| 20260502231015 | 59 | 47 | 0.0 | 2.0 | 0.00 | 0.44 | 0.00 | 91 | 1012.4 |
| 20260502230950 | 59 | 61 | 0.0 | 2.0 | 0.00 | 0.44 | 0.00 | 91 | 1012.3 |
| 20260502230514 | 59 | 29 | 1.0 | 4.0 | 0.00 | 0.44 | 0.00 | 91 | 1012.2 |
| 20260502230445 | 59 | 32 | 1.0 | 4.0 | 0.00 | 0.44 | 0.00 | 91 | 1012.2 |
| 20260502230248 | 59 | 32 | 1.0 | 6.0 | 0.00 | 0.44 | 0.00 | 91 | 1012.3 |
| 20260502230027 | 59 | 32 | 1.0 | 4.0 | 0.00 | 0.44 | 0.00 | 91 | 1012.2 |
| 20260502230014 | 59 | 31 | 1.0 | 4.0 | 0.00 | 0.44 | 0.00 | 91 | 1012.3 |
| 20260502225514 | 59 | 30 | 1.0 | 5.0 | 0.00 | 0.44 | 0.00 | 91 | 1012.4 |
| 20260502225014 | 59 | 29 | 2.0 | 6.0 | 0.00 | 0.44 | 0.00 | 91 | 1012.3 |
| 20260502224948 | 59 | 29 | 2.0 | 6.0 | 0.00 | 0.44 | 0.00 | 91 | 1012.4 |
| 20260502224559 | 59 | 40 | 2.0 | 4.0 | 0.01 | 0.44 | 0.00 | 90 | 1012.5 |
| 20260502224535 | 59 | 29 | 3.0 | 6.0 | 0.00 | 0.44 | 0.00 | 91 | 1012.3 |
| 20260502224444 | 59 | 15 | 2.0 | 5.0 | 0.00 | 0.44 | 0.00 | 91 | 1012.4 |
| 20260502224132 | 59 | 42 | 2.0 | 4.0 | 0.00 | 0.44 | 0.00 | 91 | 1012.4 |
| 20260502224015 | 59 | 27 | 2.0 | 5.0 | 0.00 | 0.44 | 0.00 | 91 | 1012.4 |
| 20260502223658 | 59 | 19 | 2.0 | 6.0 | 0.01 | 0.44 | 0.00 | 90 | 1012.5 |
| 20260502223632 | 59 | 53 | 2.0 | 6.0 | 0.02 | 0.44 | 0.00 | 90 | 1012.6 |
| 20260502223526 | 59 | 29 | 2.0 | 4.0 | 0.00 | 0.44 | 0.00 | 90 | 1012.4 |
| 20260502223514 | 59 | 26 | 2.0 | 4.0 | 0.00 | 0.44 | 0.00 | 90 | 1012.5 |
| 20260502223036 | 59 | 30 | 2.0 | 4.0 | 0.01 | 0.44 | 0.00 | 90 | 1012.5 |
| 20260502222535 | 59 | 39 | 2.0 | 6.0 | 0.01 | 0.44 | 0.00 | 90 | 1012.5 |
| 20260502222015 | 59 | 42 | 2.0 | 6.0 | 0.02 | 0.44 | 0.00 | 90 | 1012.5 |
| 20260502221702 | 59 | 38 | 1.0 | 5.0 | 0.03 | 0.44 | 0.00 | 90 | 1012.8 |
| 20260502221515 | 59 | 53 | 1.0 | 4.0 | 0.02 | 0.44 | 0.00 | 90 | 1012.7 |
| 20260502221501 | 59 | 21 | 1.0 | 4.0 | 0.02 | 0.44 | 0.00 | 90 | 1012.7 |
| 20260502221016 | 59 | 79 | 1.0 | 4.0 | 0.03 | 0.44 | 0.00 | 90 | 1012.8 |
| 20260502220855 | 59 | 53 | 1.0 | 5.0 | 0.12 | 0.44 | 0.00 | 89 | 1012.9 |
| 20260502220826 | 60 | 96 | 1.0 | 4.0 | 0.20 | 0.44 | 0.00 | 89 | 1012.9 |
| 20260502220556 | 59 | 93 | 1.0 | 5.0 | 0.04 | 0.44 | 0.00 | 89 | 1012.9 |
| 20260502220514 | 59 | 60 | 1.0 | 5.0 | 0.04 | 0.44 | 0.00 | 90 | 1013.0 |
| 20260502220106 | 59 | 47 | 1.0 | 5.0 | 0.10 | 0.44 | 0.00 | 89 | 1012.9 |
| 20260502215514 | 60 | 63 | 1.0 | 4.0 | 0.19 | 0.44 | 0.44 | 89 | 1012.9 |
| 20260502215015 | 60 | 61 | 1.0 | 5.0 | 0.33 | 0.44 | 0.44 | 89 | 1013.0 |
| 20260502214938 | 60 | 121 | 1.0 | 5.0 | 0.35 | 0.44 | 0.00 | 89 | 1013.0 |
| 20260502214514 | 60 | 59 | 1.0 | 5.0 | 0.43 | 0.44 | 0.44 | 88 | 1013.0 |
| 20260502214429 | 60 | 86 | 1.0 | 5.0 | 0.44 | 0.44 | 0.00 | 88 | 1013.0 |
| 20260502214017 | 60 | 74 | 0.0 | 3.0 | 0.44 | 0.44 | 0.44 | 88 | 1013.1 |
| 20260502213930 | 60 | 53 | 0.0 | 3.0 | 0.44 | 0.44 | 0.00 | 88 | 1013.0 |
| 20260502213514 | 60 | 35 | 2.0 | 5.0 | 0.44 | 0.44 | 0.44 | 88 | 1013.2 |
| 20260502213429 | 60 | 111 | 2.0 | 5.0 | 0.44 | 0.44 | 0.00 | 87 | 1013.1 |
| 20260502213014 | 60 | 26 | 3.0 | 8.0 | 0.43 | 0.43 | 0.43 | 87 | 1013.1 |
| 20260502212951 | 60 | 51 | 3.0 | 8.0 | 0.43 | 0.43 | 0.00 | 87 | 1013.0 |
| 20260502212514 | 60 | 27 | 3.0 | 8.0 | 0.43 | 0.43 | 0.43 | 87 | 1012.9 |
| 20260502212443 | 60 | 38 | 3.0 | 8.0 | 0.43 | 0.43 | 0.00 | 87 | 1012.9 |
| 20260502212014 | 60 | 27 | 3.0 | 6.0 | 0.43 | 0.43 | 0.43 | 86 | 1013.1 |
| 20260502211943 | 60 | 38 | 3.0 | 6.0 | 0.43 | 0.43 | 0.00 | 86 | 1013.0 |
| 20260502211515 | 60 | 15 | 2.0 | 6.0 | 0.43 | 0.43 | 0.43 | 85 | 1013.3 |
| 20260502211417 | 60 | 24 | 2.0 | 6.0 | 0.43 | 0.43 | 0.00 | 85 | 1013.3 |
| 20260502211014 | 61 | 332 | 2.0 | 9.0 | 0.41 | 0.41 | 0.41 | 85 | 1013.5 |
| 20260502210916 | 61 | 15 | 2.0 | 9.0 | 0.41 | 0.41 | 0.00 | 84 | 1013.6 |
| 20260502210514 | 61 | 295 | 3.0 | 10.0 | 0.40 | 0.40 | 0.40 | 83 | 1013.9 |
| 20260502210428 | 61 | 304 | 3.0 | 10.0 | 0.39 | 0.39 | 0.00 | 83 | 1014.0 |
| 20260502210016 | 61 | 269 | 5.0 | 10.0 | 0.34 | 0.34 | 0.35 | 82 | 1014.2 |
| 20260502205904 | 61 | 192 | 5.0 | 13.0 | 0.32 | 0.32 | 0.00 | 81 | 1014.2 |
| 20260502205514 | 62 | 266 | 6.0 | 15.0 | 0.25 | 0.25 | 0.25 | 80 | 1014.3 |
| 20260502205406 | 62 | 225 | 6.0 | 15.0 | 0.23 | 0.23 | 0.00 | 79 | 1014.3 |
| 20260502205341 | 68 | 316 | 1.0 | 10.0 | 0.00 | 0.00 | 0.00 | 67 | 1013.5 |
| 20260502205015 | 64 | 251 | 7.0 | 22.0 | 0.11 | 0.11 | 0.11 | 76 | 1014.1 |
| 20260502204920 | 64 | 245 | 7.0 | 22.0 | 0.08 | 0.08 | 0.00 | 75 | 1013.9 |
| 20260502204709 | 68 | 316 | 1.0 | 10.0 | 0.00 | 0.00 | 0.00 | 67 | 1013.5 |
| 20260502204516 | 66 | 233 | 6.0 | 22.0 | 0.01 | 0.01 | 0.01 | 70 | 1013.4 |
| 20260502204439 | 66 | 141 | 5.0 | 22.0 | 0.00 | 0.00 | 0.00 | 69 | 1013.5 |
| 20260502204016 | 68 | 225 | 2.0 | 11.0 | 0.00 | 0.00 | 0.00 | 67 | 1013.4 |
| 20260502203514 | 68 | 62 | 1.0 | 3.0 | 0.00 | 0.00 | 0.00 | 66 | 1012.9 |
| 20260502203402 | 68 | 37 | 1.0 | 3.0 | 0.00 | 0.00 | 0.00 | 66 | 1012.6 |
| 20260502203015 | 68 | 53 | 2.0 | 4.0 | 0.00 | 0.00 | 0.00 | 66 | 1012.5 |
| 20260502202903 | 68 | 80 | 1.0 | 4.0 | 0.00 | 0.00 | 0.00 | 65 | 1012.5 |
| 20260502202643 | 68 | 54 | 2.0 | 5.0 | 0.00 | 0.00 | 0.00 | 64 | 1012.5 |
| 20260502202515 | 68 | 41 | 2.0 | 5.0 | 0.00 | 0.00 | 0.00 | 65 | 1012.5 |
| 20260502202037 | 68 | 41 | 2.0 | 5.0 | 0.00 | 0.00 | 0.00 | 64 | 1012.4 |
| 20260502201933 | 68 | 42 | 2.0 | 5.0 | 0.00 | 0.00 | 0.00 | 64 | 1012.4 |
| 20260502201515 | 68 | 42 | 1.0 | 5.0 | 0.00 | 0.00 | 0.00 | 63 | 1012.6 |
| 20260502201440 | 68 | 21 | 1.0 | 5.0 | 0.00 | 0.00 | 0.00 | 63 | 1012.4 |
| 20260502201015 | 68 | 42 | 1.0 | 4.0 | 0.00 | 0.00 | 0.00 | 63 | 1012.4 |
| 20260502200907 | 68 | 52 | 1.0 | 4.0 | 0.00 | 0.00 | 0.00 | 63 | 1012.5 |
| 20260502200552 | 69 | 32 | 1.0 | 4.0 | 0.00 | 0.00 | 0.00 | 62 | 1012.5 |
| 20260502200536 | 68 | 33 | 1.0 | 4.0 | 0.00 | 0.00 | 0.00 | 63 | 1012.5 |
| 20260502200406 | 68 | 52 | 2.0 | 5.0 | 0.00 | 0.00 | 0.00 | 63 | 1012.5 |
| 20260502200331 | 69 | 32 | 1.0 | 4.0 | 0.00 | 0.00 | 0.00 | 62 | 1012.5 |
| 20260502200015 | 68 | 35 | 2.0 | 5.0 | 0.00 | 0.00 | 0.00 | 63 | 1012.5 |
| 20260502195938 | 68 | 69 | 2.0 | 5.0 | 0.00 | 0.00 | 0.00 | 63 | 1012.5 |
| 20260502195514 | 69 | 50 | 2.0 | 5.0 | 0.00 | 0.00 | 0.00 | 62 | 1012.5 |
| 20260502195014 | 69 | 68 | 1.0 | 3.0 | 0.00 | 0.00 | 0.00 | 62 | 1012.6 |
| 20260502194856 | 69 | 82 | 1.0 | 3.0 | 0.00 | 0.00 | 0.00 | 62 | 1012.6 |
| 20260502194515 | 69 | 78 | 1.0 | 2.0 | 0.00 | 0.00 | 0.00 | 62 | 1012.7 |
| 20260502194403 | 69 | 81 | 1.0 | 2.0 | 0.00 | 0.00 | 0.00 | 62 | 1012.8 |
| 20260502194014 | 69 | 61 | 1.0 | 2.0 | 0.00 | 0.00 | 0.00 | 62 | 1012.8 |
| 20260502193855 | 69 | 94 | 1.0 | 3.0 | 0.00 | 0.00 | 0.00 | 62 | 1012.8 |
| 20260502193515 | 69 | 38 | 1.0 | 3.0 | 0.00 | 0.00 | 0.00 | 61 | 1012.8 |
| 20260502193359 | 69 | 38 | 1.0 | 3.0 | 0.00 | 0.00 | 0.00 | 61 | 1012.8 |
| 20260502193015 | 70 | 34 | 1.0 | 3.0 | 0.00 | 0.00 | 0.00 | 61 | 1012.8 |
| 20260502192938 | 70 | 29 | 1.0 | 3.0 | 0.00 | 0.00 | 0.00 | 61 | 1013.0 |
| 20260502192910 | 69 | 38 | 1.0 | 3.0 | 0.00 | 0.00 | 0.00 | 61 | 1012.7 |
| 20260502192514 | 70 | 30 | 1.0 | 3.0 | 0.00 | 0.00 | 0.00 | 61 | 1012.9 |
| 20260502192014 | 70 | 30 | 2.0 | 3.0 | 0.00 | 0.00 | 0.00 | 61 | 1013.0 |
| 20260502191912 | 70 | 11 | 2.0 | 4.0 | 0.00 | 0.00 | 0.00 | 61 | 1012.9 |
| 20260502191847 | 70 | 29 | 1.0 | 3.0 | 0.00 | 0.00 | 0.00 | 61 | 1013.0 |
| 20260502191515 | 70 | 43 | 1.0 | 3.0 | 0.00 | 0.00 | 0.00 | 61 | 1013.0 |
| 20260502191035 | 70 | 41 | 2.0 | 4.0 | 0.00 | 0.00 | 0.00 | 60 | 1012.9 |
| 20260502190833 | 70 | 48 | 2.0 | 5.0 | 0.00 | 0.00 | 0.00 | 61 | 1012.9 |
| 20260502190514 | 70 | 25 | 2.0 | 7.0 | 0.00 | 0.00 | 0.00 | 60 | 1012.9 |
| 20260502190331 | 70 | 33 | 2.0 | 7.0 | 0.00 | 0.00 | 0.00 | 60 | 1012.8 |
| 20260502190015 | 70 | 24 | 3.0 | 7.0 | 0.00 | 0.00 | 0.00 | 60 | 1012.9 |
| 20260502185835 | 71 | 28 | 3.0 | 7.0 | 0.00 | 0.00 | 0.00 | 60 | 1012.9 |
| 20260502185513 | 71 | 26 | 2.0 | 5.0 | 0.00 | 0.00 | 0.00 | 60 | 1012.9 |
| 20260502185335 | 71 | 21 | 2.0 | 5.0 | 0.00 | 0.00 | 0.00 | 60 | 1013.0 |
| 20260502185044 | 71 | 38 | 1.0 | 4.0 | 0.00 | 0.00 | 0.00 | 60 | 1013.0 |
| 20260502185035 | 71 | 30 | 2.0 | 4.0 | 0.00 | 0.00 | 0.00 | 60 | 1013.0 |
| 20260502184902 | 71 | 34 | 2.0 | 4.0 | 0.00 | 0.00 | 0.00 | 60 | 1013.0 |
| 20260502184514 | 71 | 28 | 2.0 | 4.0 | 0.00 | 0.00 | 0.00 | 60 | 1012.9 |